GW0759 Weather Reports


Display with metric or nautical units.
time (UTC)temp
F
wind
direction
speed
MPH
gust
MPH
rain 1hr
in
rain 24hr
in
rain mn
in
humidity
%
barometer
mb
20260505211556 89 198 2.0 8.0 0.00 0.00 0.00 56 1002.5
20260505210055 89 177 2.0 7.0 0.00 0.00 0.00 56 1002.6
20260505204555 90 240 2.0 10.0 0.00 0.00 0.00 55 1002.8
20260505203103 89 265 4.0 10.0 0.00 0.00 0.00 56 1002.8
20260505201606 88 228 4.0 12.0 0.00 0.00 0.00 58 1003.1
20260505200058 88 220 2.0 12.0 0.00 0.00 0.00 60 1003.3
20260505194559 88 199 1.0 10.0 0.00 0.00 0.00 62 1003.2
20260505193052 86 244 5.0 14.0 0.00 0.00 0.00 59 1003.4
20260505191611 86 227 4.0 10.0 0.00 0.00 0.00 63 1003.5
20260505190049 85 145 4.0 12.0 0.00 0.00 0.00 63 1003.7
20260505184551 84 207 5.0 14.0 0.00 0.00 0.00 64 1004.0
20260505183053 84 184 4.0 12.0 0.00 0.00 0.00 67 1004.0
20260505181552 83 215 6.0 16.0 0.00 0.00 0.00 67 1004.0
20260505174557 82 220 5.0 13.0 0.00 0.00 0.00 70 1004.2
20260505173048 80 175 5.0 15.0 0.00 0.00 0.00 72 1004.1
20260505171551 80 224 5.0 17.0 0.00 0.00 0.00 72 1004.1
20260505170047 80 113 5.0 17.0 0.00 0.00 0.00 74 1003.8
20260505164551 79 181 5.0 18.0 0.00 0.00 0.00 74 1003.8
20260505163049 78 132 5.0 21.0 0.00 0.00 0.00 74 1003.8
20260505161553 78 201 6.0 17.0 0.00 0.00 0.00 75 1004.2
20260505153053 77 205 5.0 16.0 0.00 0.00 0.00 78 1003.9
20260505151549 76 221 6.0 16.0 0.00 0.00 0.00 79 1003.9
20260505124550 69 150 5.0 12.0 0.00 0.00 0.00 91 1003.6
20260505123055 68 206 5.0 11.0 0.00 0.00 0.00 91 1003.4
20260505121548 67 175 4.0 10.0 0.00 0.00 0.00 92 1003.1
20260505120052 67 150 3.0 9.0 0.00 0.00 0.00 92 1003.0
20260505114556 67 157 3.0 10.0 0.00 0.00 0.00 92 1002.8
20260505113053 67 196 3.0 9.0 0.00 0.00 0.00 92 1002.9
20260505111547 67 203 4.0 10.0 0.00 0.00 0.00 92 1002.7
20260505101604 67 210 4.0 11.0 0.00 0.00 0.00 91 1002.7
20260505094551 67 184 3.0 11.0 0.00 0.00 0.00 90 1002.8
20260505093100 68 87 4.0 11.0 0.00 0.00 0.00 90 1003.0
20260505091554 68 168 5.0 13.0 0.00 0.00 0.00 89 1003.0
20260505090052 68 166 5.0 11.0 0.00 0.00 0.00 89 1003.2
20260505084547 68 178 5.0 12.0 0.00 0.00 0.00 88 1003.2
20260505083047 68 120 6.0 15.0 0.00 0.00 0.00 88 1003.2
20260505081605 69 204 5.0 14.0 0.00 0.00 0.00 88 1003.2
20260505080058 69 196 6.0 14.0 0.00 0.00 0.00 87 1003.4
20260505074552 69 160 5.0 12.0 0.00 0.00 0.00 86 1003.6
20260505073058 69 147 6.0 14.0 0.00 0.00 0.00 86 1003.7
20260505071554 69 92 6.0 14.0 0.00 0.00 0.00 85 1003.8
20260505070059 70 169 7.0 14.0 0.00 0.00 0.00 84 1004.4
20260505064549 70 184 4.0 14.0 0.00 0.00 0.00 83 1004.4
20260505063051 70 171 5.0 13.0 0.00 0.00 0.00 82 1004.8
20260505061547 70 172 5.0 11.0 0.00 0.00 0.00 81 1004.7
20260505060050 71 119 5.0 14.0 0.00 0.00 0.00 80 1004.6
20260505054553 71 116 6.0 15.0 0.00 0.00 0.00 79 1004.7
20260505053052 71 179 7.0 16.0 0.00 0.00 0.00 78 1004.4
20260505051549 71 215 6.0 14.0 0.00 0.00 0.00 77 1004.7
20260505041548 73 194 4.0 15.0 0.00 0.00 0.00 74 1004.9
20260505040051 73 128 5.0 13.0 0.00 0.00 0.00 74 1005.2
20260505034551 73 163 5.0 15.0 0.00 0.00 0.00 74 1005.1
20260505033052 73 175 4.0 16.0 0.00 0.00 0.00 74 1004.9
20260505031551 73 218 6.0 15.0 0.00 0.00 0.00 74 1004.6
20260505030050 73 130 5.0 12.0 0.00 0.00 0.00 73 1004.9
20260505024552 74 131 5.0 15.0 0.00 0.00 0.00 73 1004.8
20260505023054 74 161 5.0 14.0 0.00 0.00 0.00 73 1004.6
20260505021553 74 93 4.0 11.0 0.00 0.00 0.00 73 1004.6
20260505020055 74 103 4.0 11.0 0.00 0.00 0.00 72 1004.4
20260505014600 74 90 3.0 11.0 0.00 0.00 0.00 72 1004.3
20260505013056 74 137 3.0 11.0 0.00 0.00 0.00 71 1004.4
20260505011554 74 170 3.0 9.0 0.00 0.00 0.00 71 1004.2
20260505010112 75 161 3.0 13.0 0.00 0.00 0.00 70 1004.2
20260505004559 75 87 5.0 13.0 0.00 0.00 0.00 69 1004.4
20260505003058 76 217 5.0 14.0 0.00 0.00 0.00 69 1004.6
20260505001552 77 163 6.0 13.0 0.00 0.00 0.00 67 1004.7
20260505000053 77 248 5.0 17.0 0.00 0.00 0.00 66 1004.9
20260504234551 78 140 5.0 14.0 0.00 0.00 0.00 64 1005.0
20260504233055 78 178 5.0 16.0 0.00 0.00 0.00 64 1004.9
20260504231557 79 225 7.0 17.0 0.00 0.00 0.00 62 1005.2
20260504230050 80 193 8.0 17.0 0.00 0.00 0.00 61 1005.3
20260504224552 80 159 6.0 16.0 0.00 0.00 0.00 61 1005.4
20260504223101 80 135 6.0 14.0 0.00 0.00 0.00 59 1005.4
20260504221606 80 160 8.0 19.0 0.00 0.00 0.00 59 1005.6
20260504220056 79 180 6.0 17.0 0.00 0.00 0.00 60 1005.7
20260504214559 80 136 7.0 20.0 0.00 0.00 0.00 60 1005.9
20260504213109 81 207 6.0 18.0 0.00 0.00 0.00 59 1006.0